星链-1811 (STARLINK-1811 )

导读 | 豆包AI

STARLINK-1811是美国太空探索技术公司(SpaceX)星链卫星星座中的一颗卫星,隶属于低轨卫星互联网星座,于2020年10月18日发射入轨。它主要用于提供全球范围的高速卫星互联网服务,可覆盖偏远地区,为各类终端提供网络连接,是星链计划规模化组网建设过程中的重要组成部分,也承载着探索低轨卫星通信商业应用的任务。

Basic Information
目录编号:
46710
目录名称:
STARLINK-1811
国际标识:
2020-073AS
轨道中心:
EARTH
卫星名称:
星链-1811
卫星全名:
星链-1811 (STARLINK-1811 )
卫星状态:
已陨落 最后检测时间 2023-11-18
发射日期:
2020-10-18 UTC
国别 :
美国 (US)
星等 :
--
Orbit Information
数据来源 国际轨道数据
星历时间: 2023-11-17T18:32:51+0800
轨道信息已过期894天
半长轴: 6592.891km
偏心率: 0.0009942
轨道倾角: 53.029°
近地点辐角 7.463°
升交点赤经 30.881°
平近点角 66.309°
近地点: 208.201km
远地点: 221.311km
周期: 88.792分钟
每日圈数: 16.217689
Detailed Information
固有亮度:
5
最大亮度:
2.5
卫星平台:
Starlink V1.0
覆盖范围:
全球
运营商:
太空探索技术公司
运营商所在国:
美国
制造商(研发单位):
太空探索技术公司
制造商所在国:
美国
使用方式:
暂无
Satellite Introduction
星链(Starlink)计划是由太空探索技术公司(SpaceX)提出的一个巨型低轨卫星互联网星座项目,计划在2019年至2024年间在太空搭建由约1.2万颗卫星组成的“星链”网络,其中1584颗将部署在地球上空550千米处的近地轨道,并从2020年开始工作。该卫星已陨落。